This is the latest recevied weather packets stored in our database for station/object DH0DM-13. If no packets are shown the sender has not sent any weather packets the latest 10 day(s).
| Time | Temp. | Humidity | Pressure | Rain* | Wind** | Luminosity | Snow |
|---|---|---|---|---|---|---|---|
| 1777589023 | 4.44° C | 85% | 1002.5 hPa | 0 mm | 0 m/s | - | - |
| 1777588422 | 4.44° C | 85% | 1002.5 hPa | 0 mm | 0 m/s | - | - |
| 1777587821 | 4.44° C | 84% | 1002.7 hPa | 0 mm | 0 m/s | - | - |
| 1777587221 | 4.44° C | 83% | 1002.7 hPa | 0 mm | 0 m/s | - | - |
| 1777586620 | 4.44° C | 83% | 1002.7 hPa | 0 mm | 0 m/s | - | - |
| 1777586019 | 5° C | 83% | 1002.6 hPa | 0 mm | 0 m/s | - | - |
| 1777585418 | 5° C | 84% | 1002.8 hPa | 0 mm | 0 m/s | - | - |
| 1777584817 | 5° C | 83% | 1002.7 hPa | 0 mm | 0 m/s | - | - |
| 1777584216 | 5.56° C | 81% | 1002.6 hPa | 0 mm | 0 m/s | - | - |
| 1777583615 | 5.56° C | 80% | 1002.6 hPa | 0 mm | 0 m/s | - | - |
| 1777583014 | 5.56° C | 80% | 1002.6 hPa | 0 mm | 0 m/s | - | - |
| 1777582413 | 6.11° C | 78% | 1002.6 hPa | 0 mm | 0 m/s | - | - |
| 1777581812 | 6.67° C | 77% | 1002.5 hPa | 0 mm | 0 m/s | - | - |
| 1777581211 | 6.67° C | 76% | 1002.6 hPa | 0 mm | 0 m/s | - | - |
| 1777580611 | 6.67° C | 76% | 1002.4 hPa | 0 mm | 0 m/s | - | - |
| 1777580010 | 7.22° C | 74% | 1002.7 hPa | 0 mm | 0 m/s | - | - |
| 1777579409 | 7.78° C | 72% | 1002.5 hPa | 0 mm | 0 m/s | - | - |
| 1777578808 | 7.78° C | 72% | 1002.6 hPa | 0 mm | 0 m/s | - | - |
| 1777578207 | 7.78° C | 72% | 1002.6 hPa | 0 mm | 0 m/s | - | - |
| 1777577606 | 7.78° C | 72% | 1002.5 hPa | 0 mm | 0 m/s | - | - |
| 1777577005 | 8.33° C | 70% | 1002.5 hPa | 0 mm | 0 m/s | - | - |
| 1777576404 | 8.33° C | 69% | 1002.6 hPa | 0 mm | 0 m/s | - | - |
| 1777575804 | 8.89° C | 67% | 1002.4 hPa | 0 mm | 0 m/s | - | - |
| 1777575202 | 10° C | 66% | 1002.2 hPa | 0 mm | 0 m/s | - | - |
| 1777574601 | 10.56° C | 63% | 1002.5 hPa | 0 mm | 0 m/s | - | - |
* Rain since midnight (hover to see other rain measurements)
** Current wind speed in m/s (hover to see current wind gust speed)